STARLINK-32174, 61509

Orbit data source: Space-Track

STARLINK-32174, 61509 is a payload satellite owned by SpaceX/Seattle (US) in LEO that was launched on Tue, 15 Oct 2024 UTC via an FALCON 9 launch vehicle from the Air Force Eastern Test Range (AFETR). Payload-class satellites include a variety of spacecraft equipped with specific instruments for various scientific and technological missions. These include communications satellites like Starlink; space stations such as the ISS; scientific satellites like the Hubble; Earth observation satellites from companies like Planet Labs, Umbra, and HawkEye 360; GPS; miniature CubeSats for education and research; and military/defense satellites.

Loading next visibility...
Identifier
61509, 2024-183A
Orbit
LEO
Country
Flag of USUS
Related business
Manufacturer
SpaceX/Seattle
Mission
Operational Commercial Communications
Bus & Motor
STARLINK V2M, Unknown motor
Mass
730 kg wet, ~700 kg dry
Launch date (UTC)
2024-10-15 (2 years ago)
Launch vehicle
FALCON 9
Launch site
Air Force Eastern Test Range (AFETR)
Object type
Payload
Rocket body
Debris
Shape & HBR
Box + 2 Pan, 17.7 m
Radar Cross Section
33.884 m², Large (>1 m²)

Expand to show TLE details & history
Last TLE update: 22 hours ago

TLE from 22 hours ago
0 STARLINK-32174
1 61509U 24183A   26170.98837818 -.00002747  00000-0 -70223-4 0  9997
2 61509  53.1596  13.8701 0001118 121.1391 238.9721 15.34383487 95508
Epoch: 2026-06-19T23:43Z
TLE epoch observation values (Epoch: 2026-06-19T23:43:15.874Z)
Latitude
-0.00006°
Longitude
109.84445°
Altitude
464.048 km
Speed
7.635 km/s
True Right ascension
00h 55m 28s
True Declination
0° 00' 00"
Sunlit
Object was in daylight at epoch
Visualization orbit readout
Latitude
Unknown
Longitude
Unknown
Altitude
Unknown
Speed
Unknown
Apparent Right ascension
Unknown
Apparent Declination
Unknown
Sunlit
N/A
Visualization observer readout
Local Sidereal Time
08:43:04
Azimuth
Unknown
Elevation
Unknown
Doppler factor
Unknown
Orbital elements
Apogee altitude
463.774 km
Perigee altitude
462.244 km
Semi-major axis
6,841.146 km
Eccentricity
0.00011
Inclination
53.1596°
RAAN
13.8701°
Arg. of periapsis
121.1391°
True anomaly
238.96112°
Mean anomaly
238.9721°
Eccentric anomaly
238.96661°
Mean motion
3.83575 °/min
Orbital period
93.85 mins
BSTAR
-0.000070223
Loading maneuver chart data...
Computing Atmospheric mass density...
Loading historical data...
Loading historical data...
Loading historical data...
Loading historical data...
Loading historical data...
Loading historical data...
Loading historical data...

Documentation

Showing up to 5 results
|